Location: Hradec Kralove
(50.2170°N, 15.8330°E)
Time: 11:16:24
(UTC+02:00)

AO-73 - Visible Passes

Search period start: 16 September 2024 00:00
Search period end: 26 September 2024 00:00
Orbit: 552 x 616 km, 97.7° (Epoch: 15 September)

Date Brightness Start Highest point End Pass type
(mag) Time Alt. Az. Time Alt. Az. Time Alt. Az.
16 Sep ? 03:03:35 10° NE 03:06:13 16° E 03:06:47 16° E visible
16 Sep ? 04:37:57 10° N 04:42:00 56° WNW 04:43:11 40° SW visible
17 Sep ? 03:09:35 10° NE 03:12:30 19° E 03:12:57 18° E visible
17 Sep ? 04:44:13 10° N 04:48:12 49° WNW 04:49:21 37° WSW visible
18 Sep ? 03:15:35 10° NE 03:18:44 21° E 03:19:05 21° E visible
18 Sep ? 04:50:28 10° N 04:54:21 42° WNW 04:55:30 33° WSW visible
19 Sep ? 03:21:36 10° NE 03:24:57 24° E 03:25:11 24° E visible
19 Sep ? 04:56:42 10° N 05:00:29 37° WNW 05:01:36 30° WSW visible
20 Sep ? 03:27:37 10° NE 03:31:08 27° E 03:31:16 27° E visible
20 Sep ? 05:02:55 10° N 05:06:34 32° WNW 05:07:40 28° W visible
21 Sep ? 03:33:37 10° NNE 03:37:17 31° E 03:37:19 31° E visible
21 Sep ? 05:09:07 10° N 05:12:37 28° WNW 05:13:43 25° W visible
22 Sep ? 03:39:37 10° NNE 03:43:19 36° E 03:43:19 36° E visible
22 Sep ? 05:15:17 10° N 05:18:38 25° WNW 05:19:43 22° W visible
23 Sep ? 03:45:36 10° NNE 03:49:19 41° E 03:49:19 41° E visible
23 Sep ? 05:21:28 10° NNW 05:24:38 22° WNW 05:25:42 20° W visible
24 Sep ? 03:51:34 10° NNE 03:55:16 47° E 03:55:16 47° E visible
24 Sep ? 05:27:37 10° NNW 05:30:35 20° WNW 05:31:40 18° W visible
25 Sep ? 03:57:30 10° NNE 04:01:11 53° E 04:01:11 53° E visible
25 Sep ? 05:33:46 10° NNW 05:36:30 18° WNW 05:37:35 16° W visible
